TimeEST,TemperatureF,Dew PointF,Humidity,Sea Level PressureIn,VisibilityMPH,Wind Direction,Wind SpeedMPH,Gust SpeedMPH,PrecipitationIn,Events,Conditions,WindDirDegrees,DateUTC
12:54 AM,21.9,19.0,89,30.35,6.0,Calm,Calm,-,N/A,,Clear,0,2013-01-08 05:54:00
1:54 AM,19.9,18.0,92,30.35,5.0,Calm,Calm,-,N/A,,Clear,0,2013-01-08 06:54:00
2:54 AM,19.9,17.1,89,30.35,5.0,Calm,Calm,-,N/A,,Clear,0,2013-01-08 07:54:00
3:54 AM,19.0,16.0,88,30.34,5.0,Calm,Calm,-,N/A,,Clear,0,2013-01-08 08:54:00
4:54 AM,19.9,17.1,89,30.35,4.0,Calm,Calm,-,N/A,,Clear,0,2013-01-08 09:54:00
5:54 AM,18.0,14.0,84,30.37,4.0,Calm,Calm,-,N/A,,Clear,0,2013-01-08 10:54:00
6:54 AM,19.0,16.0,88,30.38,3.0,Calm,Calm,-,N/A,,Clear,0,2013-01-08 11:54:00
7:07 AM,17.6,14.0,86,30.35,2.5,Calm,Calm,-,N/A,,Clear,0,2013-01-08 12:07:00
7:29 AM,17.6,14.0,86,30.35,4.0,Calm,Calm,-,N/A,,Clear,0,2013-01-08 12:29:00
7:54 AM,17.1,15.1,92,30.39,3.0,Calm,Calm,-,N/A,,Clear,0,2013-01-08 12:54:00
8:33 AM,19.4,15.8,86,30.37,2.5,Calm,Calm,-,N/A,,Clear,0,2013-01-08 13:33:00
8:54 AM,19.4,17.6,93,30.37,2.5,Calm,Calm,-,N/A,,Clear,0,2013-01-08 13:54:00
9:49 AM,23.0,19.4,86,30.37,3.0,Calm,Calm,-,N/A,,Clear,0,2013-01-08 14:49:00
9:54 AM,21.9,19.0,89,30.40,3.0,Calm,Calm,-,N/A,,Clear,0,2013-01-08 14:54:00
10:54 AM,26.1,21.0,81,30.40,5.0,WSW,3.5,-,N/A,,Haze,250,2013-01-08 15:54:00
11:54 AM,30.0,23.0,75,30.39,5.0,Calm,Calm,-,N/A,,Haze,0,2013-01-08 16:54:00
12:54 PM,33.1,23.0,66,30.36,6.0,Calm,Calm,-,N/A,,Haze,0,2013-01-08 17:54:00
1:54 PM,36.0,23.0,59,30.35,8.0,Calm,Calm,-,N/A,,Clear,0,2013-01-08 18:54:00
2:54 PM,37.9,24.1,57,30.35,9.0,ESE,3.5,-,N/A,,Clear,120,2013-01-08 19:54:00
3:54 PM,39.0,24.1,55,30.37,6.0,Calm,Calm,-,N/A,,Haze,0,2013-01-08 20:54:00
4:54 PM,36.0,24.1,62,30.38,9.0,Calm,Calm,-,N/A,,Clear,0,2013-01-08 21:54:00
5:54 PM,32.0,25.0,75,30.38,9.0,Calm,Calm,-,N/A,,Clear,0,2013-01-08 22:54:00
6:54 PM,32.0,26.1,79,30.38,8.0,Calm,Calm,-,N/A,,Clear,0,2013-01-08 23:54:00
7:54 PM,28.9,24.1,82,30.40,7.0,Calm,Calm,-,N/A,,Clear,0,2013-01-09 00:54:00
8:54 PM,28.0,25.0,88,30.39,5.0,Calm,Calm,-,N/A,,Clear,0,2013-01-09 01:54:00
9:54 PM,25.0,21.9,88,30.40,4.0,Calm,Calm,-,N/A,,Clear,0,2013-01-09 02:54:00
10:54 PM,25.0,23.0,92,30.40,3.0,Calm,Calm,-,N/A,,Clear,0,2013-01-09 03:54:00
11:42 PM,24.8,21.2,86,30.38,2.0,Calm,Calm,-,N/A,,Clear,0,2013-01-09 04:42:00
11:54 PM,24.1,21.9,91,30.40,2.5,Calm,Calm,-,N/A,,Clear,0,2013-01-09 04:54:00